Temperature
16 16 16 15 15 15 15 15 15 15 14 14 14 14 14 14 14 14 14 14 14 14 14 14 13 13 13 13 13 13 12 12 12 11 11 11 11 10 10 10 10 10 10
16 16 16 15 15 15 15 15 15 15 14 14 14 14 14 14 14 14 14 14 14 14 14 13 13 13 13 13 13 13 12 12 12 12 11 11 11 10 10 10 10 10 10
16 16 16 15 15 15 15 15 14 14 14 14 14 14 14 14 14 14 14 14 14 14 13 13 13 13 13 13 13 12 12 12 12 11 11 11 10 10 10 10 10 10 10
16 16 15 15 15 15 14 14 14 14 14 14 14 14 14 14 14 14 14 13 13 13 13 13 13 13 13 13 12 12 12 12 11 11 11 11 10 10 10 10 10 10 9
16 15 15 15 15 14 14 14 14 14 14 14 14 14 14 14 14 13 13 13 13 13 13 13 13 13 12 12 12 12 12 12 11 11 11 11 11 10 10 10 10 9 9
15 15 15 15 15 14 14 14 14 14 14 14 14 14 14 13 13 13 13 13 13 13 13 13 13 12 12 12 12 12 12 11 11 11 11 11 10 10 10 10 10 9 9
15 15 15 15 14 14 14 14 14 14 13 13 13 13 13 13 13 13 13 13 13 13 13 13 13 12 12 12 12 11 11 11 11 11 11 11 10 10 10 10 9 9 9
15 15 15 15 14 14 14 14 13 13 13 13 13 13 13 13 13 13 13 13 13 13 13 12 12 12 12 12 11 11 11 11 11 11 10 10 10 10 9 9 9 9 9
15 15 15 14 14 14 14 13 13 13 13 13 13 13 13 13 12 12 12 12 12 12 12 12 12 12 12 11 11 11 11 11 10 10 10 10 10 10 9 9 9 9 9
15 15 15 14 14 14 13 13 13 13 13 13 13 13 13 13 12 12 12 12 12 12 12 12 12 11 11 11 11 11 11 10 10 10 10 10 9 9 9 9 9 8 8
15 15 14 14 14 13 13 13 13 13 13 13 12 12 12 12 12 12 12 12 12 12 12 12 11 11 11 11 11 11 10 10 10 10 10 9 9 9 9 9 8 8 8
15 14 14 14 13 13 13 13 13 13 12 12 12 12 12 12 12 12 11 11 11 11 11 11 11 11 11 11 10 10 10 10 10 9 9 9 9 9 8 8 8 8 7
14 14 14 14 13 13 13 13 12 12 12 12 12 12 12 12 11 11 11 11 11 11 11 11 11 10 10 10 10 10 10 9 9 9 9 9 9 8 8 8 8 7 7
14 14 13 13 13 13 13 12 12 12 12 12 11 11 11 11 11 11 11 11 11 11 10 10 10 10 10 10 10 10 9 9 9 9 9 9 8 8 8 8 7 7 7
13 13 13 13 13 12 12 12 12 12 12 12 11 11 11 11 11 11 10 10 10 10 10 10 10 10 10 10 10 9 9 9 9 9 8 8 8 8 7 7 7 7 7
13 13 13 13 12 12 12 12 12 11 11 11 11 11 11 11 10 10 10 10 10 10 10 10 10 10 9 9 9 9 9 9 8 8 8 8 7 7 7 7 7 6 6
13 13 12 12 12 12 12 11 11 11 11 11 10 10 10 10 10 10 10 10 9 9 9 9 9 9 9 9 9 9 9 8 8 8 8 7 7 7 7 6 6 6 6
12 12 12 12 12 12 11 11 11 11 11 10 10 10 10 10 10 10 9 9 9 9 9 9 9 9 9 9 8 8 8 8 8 7 7 7 7 7 6 6 6 5 5
12 12 12 12 12 11 11 11 11 11 11 10 10 10 10 10 10 9 9 9 9 9 9 9 8 8 8 8 8 8 8 8 7 7 7 7 6 6 6 6 5 5 5
12 12 12 11 11 11 11 11 10 10 10 10 10 10 10 10 9 9 9 9 9 9 9 8 8 8 8 8 8 7 7 7 7 7 7 6 6 6 6 5 5 5 4
11 11 11 11 11 11 11 10 10 10 10 10 10 10 9 9 9 9 9 9 9 9 9 8 8 8 7 7 7 7 7 7 6 6 6 6 6 5 5 5 5 4 4
11 11 11 11 10 10 10 10 10 10 10 10 9 9 9 9 9 9 9 8 8 8 8 8 7 7 7 7 6 6 6 6 6 6 5 5 5 5 5 4 4 4 4
11 10 10 10 10 10 10 10 10 9 9 9 9 9 8 8 8 8 8 8 8 8 8 7 7 7 7 6 6 6 6 5 5 5 5 5 5 4 4 4 4 3 3
10 10 10 10 10 9 9 9 9 9 9 9 9 8 8 8 8 8 8 8 8 7 7 7 7 6 6 6 6 5 5 5 5 4 4 4 4 4 4 3 3 3 2
10 10 9 9 9 9 9 9 9 8 8 8 8 8 8 8 8 8 7 7 7 7 7 6 6 6 6 6 5 5 5 5 4 4 4 4 3 3 3 3 3 2 2
9 9 9 9 9 8 8 8 8 8 8 8 8 8 7 7 7 7 7 7 6 6 6 6 6 6 5 5 5 5 4 4 4 4 3 3 3 3 2 2 2 2 1
Wind_Speed
6 5 5 4 4 3 3 4 4 3 3 4 4 4 3 3 3 3 3 3 4 3 2 3 2 2 2 2 2 3 2 3 3 1 0 1 2 2 3 3 4 4 4
6 5 5 5 4 4 4 3 3 3 3 4 4 4 4 3 3 4 3 3 3 3 2 3 2 2 3 2 2 3 2 2 3 3 0 0 0 1 1 2 3 3 3
6 6 5 5 5 5 4 3 3 3 3 3 4 4 4 4 3 3 3 3 3 2 3 3 3 3 3 2 2 2 2 2 2 3 1 0 0 1 1 1 2 3 2
6 6 6 6 6 5 5 4 4 4 4 4 3 3 4 4 4 4 4 3 3 2 2 2 3 4 4 4 3 3 3 3 3 3 2 1 0 0 1 0 1 2 2
7 6 6 6 5 5 5 4 4 4 4 4 3 3 3 4 4 5 4 4 3 2 1 1 2 4 5 5 4 4 4 4 3 2 2 1 0 0 1 1 1 1 2
7 7 6 6 5 5 5 5 4 4 4 4 4 4 4 3 5 7 6 4 3 3 2 1 1 2 3 4 5 7 7 6 5 4 3 3 3 3 2 2 1 0 2
7 6 6 6 6 6 5 5 5 4 4 4 4 4 4 4 7 7 7 4 3 3 3 2 1 2 3 2 3 4 4 5 6 6 5 5 4 5 4 3 3 3 3
6 6 6 6 6 5 5 5 5 4 4 4 4 4 4 4 7 7 7 4 3 2 3 3 2 2 3 4 3 2 1 1 3 4 4 4 4 4 5 4 4 2 1
6 6 7 7 7 6 6 6 5 4 4 4 4 4 4 5 7 8 8 4 3 2 2 2 3 3 5 6 5 4 2 2 2 3 4 3 3 3 5 3 2 1 2
8 7 7 7 8 8 8 6 4 4 5 4 4 4 5 4 6 8 8 4 3 2 1 2 4 4 5 7 5 5 4 4 2 1 1 0 0 2 4 4 4 3 1
6 6 6 6 7 7 6 5 5 5 4 4 4 3 4 5 6 8 8 4 4 3 2 2 3 5 5 6 6 5 6 4 2 2 1 0 0 0 1 3 4 3 3
5 5 6 6 6 5 6 5 5 6 5 4 4 3 3 3 5 7 8 7 6 5 4 4 3 5 5 5 4 5 5 4 2 2 1 1 2 2 2 2 4 4 4
5 5 5 5 5 5 6 6 5 5 5 5 4 4 3 3 4 7 8 8 8 5 4 6 5 5 4 3 4 5 4 2 2 2 3 3 3 2 1 1 1 2 2
5 4 4 5 4 4 5 6 6 6 6 5 5 5 4 3 3 3 3 4 5 4 3 3 3 3 2 2 2 2 2 3 3 3 3 2 1 1 1 1 1 1 1
5 4 4 4 5 5 4 4 6 7 8 8 7 7 6 6 7 8 6 5 4 4 3 1 1 1 1 1 1 1 1 2 2 2 2 2 2 2 2 2 1 1 2
5 4 4 4 4 4 4 2 4 5 7 8 8 7 7 8 8 9 9 8 7 8 4 2 2 3 3 3 3 2 2 3 3 3 3 3 3 3 3 2 2 2 3
6 5 4 4 4 4 4 4 3 2 3 6 7 8 7 8 8 9 9 8 8 8 4 3 4 4 4 4 4 4 4 3 3 3 3 3 3 3 3 3 3 3 4
5 5 5 4 4 4 5 5 4 4 3 2 4 6 7 8 8 8 8 6 4 4 4 4 4 4 4 4 4 4 3 3 3 3 3 3 4 4 4 4 4 4 4
5 4 4 4 4 4 4 4 4 4 4 3 2 2 5 6 6 7 8 4 5 5 4 4 4 4 4 4 4 3 3 3 3 3 3 4 4 4 4 4 4 5 5
4 5 4 4 3 3 3 4 4 4 4 4 4 3 3 3 3 4 4 4 4 4 4 4 4 4 4 3 3 3 2 2 3 3 3 3 3 4 4 5 4 4 5
4 4 4 3 3 4 4 4 4 4 4 4 4 3 6 4 5 4 4 4 4 5 4 4 4 3 3 3 3 3 3 3 3 3 3 3 3 3 4 4 4 4 4
4 4 4 4 3 3 3 3 3 4 4 4 2 2 5 3 3 3 4 4 4 4 4 4 4 4 4 4 4 3 3 2 2 2 2 2 2 3 3 3 4 4 4
4 4 4 3 3 3 3 3 3 3 3 4 3 3 3 4 4 4 4 3 3 3 4 4 4 4 4 5 5 5 4 4 4 4 3 3 2 2 3 3 3 4 4
4 5 5 4 3 3 4 4 3 3 3 3 3 3 4 4 4 4 4 3 3 3 4 5 5 5 5 5 5 6 6 6 5 5 5 3 3 3 3 3 4 4 4
4 5 5 5 5 4 4 4 4 4 4 4 4 4 4 4 4 4 3 3 4 4 4 5 5 6 6 6 6 6 6 6 6 5 5 4 3 4 3 4 4 4 4
5 5 4 4 4 4 5 4 4 4 4 4 4 4 4 4 4 4 4 4 4 4 4 5 6 7 7 7 8 8 8 7 7 6 5 4 4 4 4 4 4 4 5
Wind_Direction
178 174 166 168 166 166 170 175 174 162 152 151 148 135 126 119 118 114 111 116 114 103 100 113 113 114 113 109 110 109 111 125 146 198 330 5 46 41 41 51 46 44 33
180 167 168 163 159 165 170 166 158 158 160 157 148 140 139 133 128 128 130 127 126 130 132 126 133 128 119 116 120 125 134 131 145 161 196 21 29 4 16 30 24 20 17
169 165 166 166 169 174 171 159 154 156 152 147 146 153 154 149 145 141 131 129 134 146 155 155 161 144 142 137 135 136 135 123 122 145 162 127 6 26 31 9 12 0 355
168 167 177 182 180 178 170 163 163 162 156 157 158 164 164 157 152 146 139 130 131 138 155 169 171 169 172 163 156 156 140 123 118 128 140 128 261 327 88 333 329 331 329
169 176 189 185 175 167 163 165 163 162 164 161 151 153 154 157 165 161 157 152 145 139 147 183 189 179 177 176 172 169 154 143 137 142 157 145 211 205 228 222 237 305 305
175 185 182 172 168 170 169 164 158 160 158 154 163 166 174 186 177 167 157 156 162 160 166 187 190 174 176 170 169 170 167 164 170 171 184 196 220 216 200 187 179 82 295
179 179 176 172 172 179 174 162 166 169 161 163 174 171 183 192 179 171 164 152 161 171 172 168 180 173 163 153 151 152 169 179 178 176 186 206 207 209 186 188 197 199 230
179 181 177 174 177 176 171 177 179 174 172 176 181 183 184 199 186 175 168 148 159 177 184 187 184 203 184 163 152 148 182 208 197 189 197 213 209 194 185 194 201 205 262
187 193 188 181 179 178 185 190 188 179 183 185 184 183 188 204 193 183 167 152 164 193 211 196 191 209 199 174 161 172 202 257 213 192 200 211 212 194 171 134 132 133 268
198 198 191 183 182 187 194 192 186 182 189 183 184 190 191 200 193 187 175 159 173 195 214 221 212 207 202 184 176 180 203 235 212 166 175 250 209 188 178 175 180 177 207
193 183 179 184 189 192 189 184 174 173 168 173 187 199 198 204 197 191 184 176 185 189 204 233 230 207 201 195 189 193 209 199 185 180 187 267 360 258 212 208 194 182 192
171 174 181 185 192 189 177 178 172 169 170 181 188 206 217 211 200 201 199 200 191 189 210 220 215 198 199 199 194 197 193 178 166 167 187 226 235 244 249 231 222 219 223
165 178 183 182 187 181 179 178 173 175 182 193 192 206 222 214 210 209 209 209 202 203 214 202 195 190 188 200 201 189 175 169 172 189 216 233 234 237 230 232 246 236 272
167 178 178 175 177 177 182 182 182 187 192 197 201 209 217 214 208 201 199 199 201 207 207 186 175 175 167 178 188 188 180 185 188 206 219 232 218 202 224 221 226 227 271
165 174 178 179 177 179 185 195 197 203 201 200 206 201 200 217 220 200 187 191 193 191 157 122 129 145 167 196 204 206 194 189 204 208 210 225 231 230 240 225 211 200 224
166 172 179 179 180 180 180 200 223 216 214 212 208 203 215 218 210 198 195 194 189 174 155 172 197 201 206 210 210 219 216 216 217 212 214 219 226 230 242 233 210 212 235
175 181 182 183 184 185 185 188 207 246 224 214 212 209 210 208 202 198 193 188 180 168 173 197 208 212 216 212 213 217 225 223 209 206 215 222 224 228 231 232 227 230 243
176 181 181 186 187 190 194 197 196 195 203 234 224 213 209 203 196 190 177 158 174 183 197 203 213 215 216 219 220 220 222 215 209 215 220 224 221 222 227 233 232 234 244
175 180 182 183 186 189 190 188 191 198 203 207 203 218 208 196 184 178 165 174 189 200 205 207 211 212 216 219 224 221 214 218 218 213 221 224 222 220 230 234 238 241 244
181 181 176 177 181 183 184 187 193 198 204 206 206 205 176 151 163 175 179 187 193 201 203 206 210 211 211 213 217 216 214 224 225 223 228 230 228 226 234 239 241 245 250
176 179 170 171 186 190 189 192 196 199 204 204 208 197 170 173 184 188 191 197 203 204 204 204 204 205 207 205 206 213 217 228 228 225 231 240 237 235 237 239 244 248 254
176 178 180 183 189 193 193 193 192 195 198 196 193 181 178 175 184 192 202 210 213 208 200 195 199 203 202 202 200 201 209 222 232 236 244 251 252 248 243 242 244 250 253
176 177 178 184 186 187 185 186 186 189 192 193 186 181 183 193 199 203 209 213 205 199 191 189 195 204 207 206 204 199 206 218 222 218 225 242 249 254 250 252 257 261 261
177 179 181 183 184 188 193 197 196 194 192 192 192 194 196 201 208 211 210 204 199 197 196 195 199 205 205 205 210 214 217 221 220 216 210 221 242 254 258 257 257 260 264
177 181 183 185 188 192 195 198 199 198 198 198 201 203 206 207 212 214 208 200 199 202 202 200 202 204 204 206 210 215 218 217 216 214 206 206 229 243 252 259 263 270 268
184 184 186 188 191 193 195 198 203 203 206 206 205 205 206 209 212 210 204 201 203 206 204 204 205 206 208 211 216 218 218 220 221 218 210 205 224 243 250 256 261 266 268
Height
1540 1542 1544 1545 1547 1548 1549 1550 1551 1552 1552 1553 1553 1554 1555 1555 1555 1555 1556 1556 1557 1557 1558 1558 1558 1558 1559 1559 1559 1559 1559 1560 1559 1560 1561 1561 1561 1560 1560 1559 1559 1558 1557
1538 1540 1542 1543 1545 1546 1547 1548 1549 1550 1551 1552 1552 1553 1553 1554 1554 1555 1555 1556 1556 1556 1557 1557 1557 1558 1558 1558 1558 1558 1558 1559 1559 1559 1560 1560 1560 1560 1560 1559 1558 1557 1557
1536 1538 1540 1541 1543 1544 1545 1547 1548 1549 1549 1550 1551 1552 1552 1553 1553 1554 1554 1555 1555 1555 1556 1556 1556 1557 1557 1557 1557 1557 1557 1558 1558 1558 1558 1559 1559 1559 1559 1558 1558 1557 1556
1533 1535 1537 1539 1541 1542 1543 1545 1546 1547 1548 1548 1549 1550 1551 1552 1552 1553 1553 1554 1554 1554 1555 1555 1555 1556 1556 1556 1556 1556 1556 1557 1557 1557 1557 1557 1558 1558 1557 1557 1556 1556 1555
1530 1533 1535 1537 1538 1540 1541 1543 1544 1545 1546 1547 1548 1548 1549 1550 1550 1551 1552 1552 1553 1553 1553 1554 1554 1554 1555 1555 1555 1555 1555 1555 1556 1556 1556 1556 1556 1556 1556 1555 1555 1554 1554
1527 1529 1532 1534 1535 1537 1539 1540 1542 1543 1544 1545 1546 1547 1547 1548 1549 1550 1550 1551 1551 1551 1552 1552 1553 1553 1553 1553 1554 1554 1554 1554 1554 1554 1554 1554 1554 1554 1554 1554 1553 1552 1552
1524 1527 1529 1531 1533 1534 1536 1538 1539 1540 1541 1543 1544 1545 1545 1546 1547 1548 1549 1549 1549 1550 1550 1551 1551 1551 1551 1552 1552 1552 1552 1552 1553 1553 1552 1552 1552 1552 1552 1551 1551 1550 1549
1521 1524 1526 1528 1530 1531 1533 1535 1536 1537 1539 1540 1541 1542 1543 1544 1545 1546 1546 1547 1547 1547 1548 1549 1549 1549 1550 1550 1550 1550 1550 1550 1550 1550 1550 1550 1550 1550 1550 1549 1549 1548 1547
1518 1520 1522 1525 1526 1528 1530 1531 1533 1534 1536 1537 1539 1540 1541 1542 1542 1543 1544 1544 1544 1545 1545 1546 1547 1547 1547 1547 1547 1547 1547 1547 1547 1547 1547 1547 1547 1547 1547 1546 1546 1545 1543
1515 1517 1519 1521 1523 1525 1526 1528 1530 1531 1533 1534 1535 1537 1538 1539 1540 1540 1541 1541 1542 1542 1542 1543 1544 1544 1544 1545 1544 1545 1544 1545 1545 1544 1544 1544 1544 1544 1543 1543 1542 1542 1540
1512 1514 1516 1518 1519 1521 1523 1525 1526 1528 1529 1530 1532 1533 1535 1536 1537 1538 1538 1539 1539 1539 1539 1540 1541 1541 1541 1542 1542 1541 1541 1542 1542 1541 1541 1541 1541 1540 1540 1539 1539 1539 1538
1509 1511 1513 1514 1516 1518 1519 1521 1522 1524 1525 1527 1528 1529 1530 1532 1533 1534 1535 1536 1536 1536 1536 1537 1538 1538 1538 1538 1538 1538 1538 1538 1538 1538 1537 1537 1537 1537 1536 1536 1535 1535 1534
1505 1507 1509 1511 1512 1514 1516 1517 1518 1520 1521 1522 1523 1525 1526 1527 1529 1530 1531 1532 1532 1533 1533 1534 1534 1534 1534 1535 1535 1535 1535 1535 1534 1534 1533 1533 1533 1533 1533 1532 1532 1531 1530
1502 1504 1505 1507 1508 1510 1512 1513 1514 1515 1517 1518 1519 1520 1522 1523 1524 1526 1527 1528 1529 1529 1530 1530 1530 1530 1531 1531 1531 1531 1531 1531 1531 1530 1530 1530 1529 1529 1528 1528 1527 1527 1526
1499 1501 1502 1503 1505 1506 1507 1509 1510 1512 1513 1514 1515 1516 1517 1518 1520 1522 1523 1524 1525 1525 1526 1526 1526 1526 1526 1527 1527 1528 1528 1527 1527 1526 1526 1525 1525 1525 1524 1524 1523 1522 1521
1496 1498 1499 1500 1501 1502 1503 1505 1506 1508 1509 1510 1511 1512 1513 1515 1516 1518 1519 1520 1521 1522 1522 1521 1522 1522 1522 1523 1523 1523 1523 1523 1523 1523 1522 1521 1521 1520 1520 1519 1518 1517 1516
1493 1494 1496 1497 1498 1499 1500 1501 1502 1503 1505 1506 1507 1508 1509 1511 1512 1513 1514 1516 1516 1517 1517 1517 1517 1518 1518 1519 1519 1519 1519 1519 1519 1518 1518 1517 1517 1516 1515 1515 1514 1513 1511
1490 1491 1493 1494 1495 1495 1496 1497 1498 1499 1500 1501 1502 1504 1505 1506 1508 1509 1510 1511 1511 1512 1512 1513 1513 1513 1514 1514 1514 1514 1514 1514 1514 1514 1514 1513 1512 1512 1511 1510 1509 1508 1507
1487 1488 1489 1490 1491 1492 1493 1494 1495 1496 1496 1497 1498 1500 1501 1502 1504 1505 1506 1506 1506 1507 1507 1508 1509 1509 1510 1510 1510 1510 1510 1510 1510 1510 1509 1509 1508 1507 1506 1505 1504 1503 1502
1483 1484 1485 1486 1488 1488 1489 1490 1491 1492 1492 1493 1494 1495 1497 1498 1498 1500 1501 1501 1502 1503 1503 1504 1505 1505 1505 1506 1506 1505 1505 1505 1505 1505 1504 1504 1503 1502 1501 1500 1499 1498 1497
1479 1480 1482 1483 1484 1485 1485 1486 1487 1488 1488 1489 1490 1491 1492 1493 1494 1495 1496 1497 1498 1498 1499 1499 1500 1501 1501 1501 1501 1501 1501 1500 1500 1500 1499 1499 1498 1497 1496 1495 1494 1493 1491
1475 1476 1477 1478 1480 1481 1481 1482 1483 1483 1484 1485 1486 1487 1488 1489 1490 1491 1492 1493 1493 1494 1495 1495 1495 1496 1496 1496 1496 1496 1496 1495 1495 1495 1495 1494 1493 1492 1491 1490 1489 1488 1487
1471 1472 1473 1475 1476 1477 1478 1478 1479 1479 1480 1481 1482 1483 1484 1485 1486 1487 1487 1488 1489 1490 1490 1490 1491 1491 1491 1491 1492 1491 1491 1491 1491 1490 1490 1489 1488 1487 1486 1485 1484 1483 1482
1467 1468 1469 1470 1471 1472 1474 1474 1475 1476 1477 1477 1478 1479 1480 1481 1482 1482 1483 1484 1484 1485 1485 1486 1486 1486 1487 1487 1487 1487 1487 1487 1486 1486 1485 1484 1483 1482 1481 1480 1479 1478 1477
1463 1464 1465 1466 1467 1468 1469 1470 1471 1472 1472 1473 1474 1475 1476 1477 1477 1478 1479 1479 1480 1480 1481 1481 1481 1482 1482 1482 1482 1482 1482 1482 1481 1480 1480 1479 1478 1477 1476 1475 1474 1473 1472
1458 1459 1460 1461 1462 1463 1465 1466 1467 1467 1468 1469 1470 1471 1471 1472 1473 1473 1474 1474 1475 1475 1476 1476 1476 1476 1477 1477 1477 1477 1477 1476 1476 1475 1474 1473 1473 1472 1471 1470 1469 1468 1466